Flag for United Kingdom Weather past 2 weeks in Swansea, Wales, United Kingdom

Now
58 °F

Cool.


Feels Like: 56 °F
Forecast: 51 / 59 °F
Wind: 10 mph from West

Location: Mumbles

Current Time: Oct 24, 2014 at 1:53:25 PM

Latest Report: Oct 24, 2014 at 12:00 PM


Visibility: N/A

Pressure: 29.95 "Hg

Humidity: 91%

Dew point: 56 °F

Location of SwanseaLocation

Historic Weather in Swansea — Graph

°F

Swansea temperature yesterday

Maximum temperature yesterday: 59 °F (at 2:00 PM)
Minimum temperature yesterday: 55 °F (at 5:00 AM)
Average temperature yesterday: 58 °F

Past Weeks' High & Low Weather Summary

 TemperatureHumidityPressure
High63 °F (Oct 18, 3:00 PM)97% (Oct 23, 2:00 PM)30.36 "Hg (Oct 23, 2:00 PM)
Low49 °F (Oct 12, 3:00 AM)52% (Oct 21, 3:00 PM)29.35 "Hg (Oct 9, 12:00 PM)
Average57 °F83%29.82 "Hg
* Reported Oct 9 12:00 Noon — Oct 24 12:00 Noon, Swansea, Weather by CustomWeather, © 2014

Note: Actual official high and low records may vary slightly from our data, if they occured in-between our weather recording intervals... More about our weather records

Advertising

Swansea weather history for previous 24 hours

 ConditionsComfort  
Time TempWeatherWind HumidityBarometerVisibility
12:00 PM
Oct 24
58 °FCool.10 mph91%29.95 "HgN/A
11:00 AM58 °FCool.10 mph94%29.96 "HgN/A
10:00 AM58 °FCool.7 mph94%29.95 "HgN/A
9:00 AM58 °FCool.9 mph94%29.95 "HgN/A
8:00 AM58 °FCool.14 mph96%29.94 "HgN/A
7:00 AM58 °FCool.14 mph97%29.94 "HgN/A
6:00 AM58 °FCool.26 mph96%29.94 "HgN/A
5:00 AM58 °FCool.22 mph96%29.94 "HgN/A
4:00 AM58 °FCool.16 mph92%29.96 "HgN/A
3:00 AM58 °FCool.18 mph93%29.98 "HgN/A
2:00 AM57 °FCool.21 mph95%29.98 "HgN/A
1:00 AM57 °FCool.20 mph96%29.99 "HgN/A
12:00 AM58 °FCool.28 mph97%29.99 "HgN/A
11:00 PM
Oct 23
58 °FCool.22 mph93%30.00 "HgN/A
10:00 PM58 °FCool.24 mph94%30.01 "HgN/A
9:00 PM58 °FCool.26 mph93%30.01 "HgN/A
8:00 PM58 °FCool.26 mph95%30.01 "HgN/A
7:00 PM58 °FCool.25 mph95%30.02 "HgN/A
6:00 PM58 °FCool.29 mph93%30.01 "HgN/A
5:00 PM58 °FCool.26 mph94%30.02 "HgN/A
4:00 PM59 °FCool.25 mph94%30.03 "HgN/A
3:00 PM58 °FCool.31 mph95%30.04 "HgN/A
2:00 PM59 °FCool.24 mph97%30.05 "HgN/A
1:00 PM58 °FCool.29 mph96%30.06 "HgN/A
Weather by CustomWeather, © 2014

See weather overviewHow to use our weather pages